FW8685 Weather Reports


time (UTC)temp
C
wind
direction
speed
KPH
gust
KPH
rain 1hr
cm
rain 24hr
cm
rain mn
cm
humidity
%
barometer
mb
20260504034553 20 202 20.9 35.4 0.00 0.00 0.00 42 1005.4
20260504034021 20 188 19.3 37.0 0.00 0.00 0.00 43 1005.3
20260504033521 20 192 17.7 37.0 0.00 0.00 0.00 43 1005.4
20260504033038 20 195 19.3 35.4 0.00 0.00 0.00 44 1005.4
20260504032521 20 188 16.1 38.6 0.00 0.00 0.00 44 1005.4
20260504032023 20 195 17.7 38.6 0.00 0.00 0.00 44 1005.5
20260504031537 20 174 17.7 35.4 0.00 0.00 0.00 44 1005.5
20260504031021 20 187 17.7 32.2 0.00 0.00 0.00 43 1005.6
20260504030521 20 175 17.7 30.6 0.00 0.00 0.00 43 1005.5
20260504030042 20 160 16.1 29.0 0.00 0.00 0.00 43 1005.6
20260504025521 21 182 16.1 29.0 0.00 0.00 0.00 42 1005.5
20260504025023 21 178 19.3 29.0 0.00 0.00 0.00 42 1005.7
20260504024538 21 152 17.7 29.0 0.00 0.00 0.00 41 1005.7
20260504024023 21 169 16.1 27.4 0.00 0.00 0.00 41 1005.7
20260504023521 21 192 14.5 27.4 0.00 0.00 0.00 41 1005.6
20260504023040 21 172 14.5 29.0 0.00 0.00 0.00 40 1005.6
20260504022524 21 167 14.5 29.0 0.00 0.00 0.00 40 1005.6
20260504022022 21 197 16.1 27.4 0.00 0.00 0.00 40 1005.6
20260504021538 21 176 14.5 24.1 0.00 0.00 0.00 40 1005.6
20260504021021 21 159 14.5 25.7 0.00 0.00 0.00 39 1005.5
20260504020521 22 194 12.9 27.4 0.00 0.00 0.00 39 1005.5
20260504020037 22 173 14.5 27.4 0.00 0.00 0.00 39 1005.5
20260504015522 22 182 16.1 29.0 0.00 0.00 0.00 38 1005.5
20260504015021 22 188 14.5 29.0 0.00 0.00 0.00 37 1005.5
20260504014536 22 190 14.5 24.1 0.00 0.00 0.00 37 1005.4
20260504014020 22 188 14.5 24.1 0.00 0.00 0.00 36 1005.4
20260504013522 22 165 12.9 24.1 0.00 0.00 0.00 35 1005.5
20260504013047 23 194 12.9 22.5 0.00 0.00 0.00 34 1005.4
20260504012525 23 172 11.3 22.5 0.00 0.00 0.00 33 1005.4
20260504012022 23 182 9.7 16.1 0.00 0.00 0.00 32 1005.3
20260504011541 24 175 9.7 17.7 0.00 0.00 0.00 30 1005.3
20260504011021 25 207 9.7 17.7 0.00 0.00 0.00 29 1005.4
20260504010521 25 217 11.3 17.7 0.00 0.00 0.00 29 1005.3
20260504010038 25 213 9.7 20.9 0.00 0.00 0.00 29 1005.4
20260504005524 25 215 11.3 20.9 0.00 0.00 0.00 28 1005.4
20260504005025 25 206 11.3 24.1 0.00 0.00 0.00 28 1005.5
20260504004537 26 196 11.3 24.1 0.00 0.00 0.00 27 1005.5
20260504004026 26 215 11.3 24.1 0.00 0.00 0.00 27 1005.5
20260504003525 26 214 12.9 24.1 0.00 0.00 0.00 27 1005.6
20260504003037 26 246 11.3 25.7 0.00 0.00 0.00 26 1005.7
20260504002525 26 219 12.9 25.7 0.00 0.00 0.00 26 1005.7
20260504002024 26 211 12.9 29.0 0.00 0.00 0.00 26 1005.7
20260504001557 27 205 11.3 30.6 0.00 0.00 0.00 25 1005.8
20260504001025 27 207 12.9 30.6 0.00 0.00 0.00 26 1005.8
20260504000525 27 208 11.3 30.6 0.00 0.00 0.00 25 1005.9
20260504000040 27 234 16.1 30.6 0.00 0.00 0.00 25 1005.8
20260503235524 27 234 12.9 27.4 0.00 0.00 0.00 24 1005.9
20260503235025 27 239 12.9 27.4 0.00 0.00 0.00 24 1005.9
20260503234540 28 235 12.9 35.4 0.00 0.00 0.00 22 1006.0
20260503234022 28 259 19.3 35.4 0.00 0.00 0.00 22 1006.1
20260503233526 28 213 14.5 32.2 0.00 0.00 0.00 22 1006.1
20260503233040 29 236 17.7 32.2 0.00 0.00 0.00 22 1006.1
20260503232524 29 238 12.9 27.4 0.00 0.00 0.00 23 1006.1
20260503232021 29 242 16.1 32.2 0.00 0.00 0.00 22 1006.1
20260503231537 29 225 14.5 32.2 0.00 0.00 0.00 23 1006.2
20260503231021 29 239 16.1 43.5 0.00 0.00 0.00 21 1006.1
20260503230527 29 215 22.5 43.5 0.00 0.00 0.00 21 1006.1
20260503230037 30 231 19.3 37.0 0.00 0.00 0.00 20 1006.2
20260503225521 30 250 19.3 32.2 0.00 0.00 0.00 21 1006.2
20260503225024 30 218 11.3 30.6 0.00 0.00 0.00 22 1006.2
20260503224536 29 217 19.3 30.6 0.00 0.00 0.00 21 1006.3
20260503224022 29 226 19.3 32.2 0.00 0.00 0.00 20 1006.3
20260503223524 30 235 19.3 33.8 0.00 0.00 0.00 19 1006.4
20260503223041 30 246 19.3 33.8 0.00 0.00 0.00 21 1006.4
20260503222524 30 249 19.3 38.6 0.00 0.00 0.00 21 1006.4
20260503222021 30 198 19.3 38.6 0.00 0.00 0.00 21 1006.3
20260503221543 30 210 17.7 33.8 0.00 0.00 0.00 20 1006.5
20260503221026 30 226 16.1 37.0 0.00 0.00 0.00 20 1006.5
20260503220522 30 229 19.3 37.0 0.00 0.00 0.00 20 1006.6
20260503220040 30 226 17.7 35.4 0.00 0.00 0.00 21 1006.7
20260503215522 30 250 14.5 35.4 0.00 0.00 0.00 20 1006.7
20260503215025 30 235 16.1 40.2 0.00 0.00 0.00 21 1006.8
20260503214540 30 279 19.3 40.2 0.00 0.00 0.00 20 1006.9
20260503214022 30 238 22.5 40.2 0.00 0.00 0.00 21 1007.0
20260503213523 30 254 24.1 35.4 0.00 0.00 0.00 20 1007.1
20260503213043 30 267 19.3 41.8 0.00 0.00 0.00 20 1007.3
20260503212521 30 242 24.1 41.8 0.00 0.00 0.00 20 1007.3
20260503212021 30 248 16.1 41.8 0.00 0.00 0.00 21 1007.3
20260503211537 30 242 22.5 41.8 0.00 0.00 0.00 20 1007.4
20260503211022 30 227 19.3 35.4 0.00 0.00 0.00 20 1007.5
20260503210525 30 215 16.1 35.4 0.00 0.00 0.00 21 1007.6
20260503210036 30 260 19.3 35.4 0.00 0.00 0.00 21 1007.6
20260503205522 30 232 14.5 30.6 0.00 0.00 0.00 21 1007.8
20260503205022 30 229 14.5 37.0 0.00 0.00 0.00 21 1007.9
20260503204544 30 220 19.3 37.0 0.00 0.00 0.00 21 1007.8
20260503204022 30 271 20.9 37.0 0.00 0.00 0.00 19 1008.1
20260503203522 30 224 20.9 37.0 0.00 0.00 0.00 19 1008.2
20260503203042 30 287 19.3 40.2 0.00 0.00 0.00 20 1008.2
20260503202522 30 278 20.9 40.2 0.00 0.00 0.00 21 1008.3
20260503202022 30 240 19.3 40.2 0.00 0.00 0.00 21 1008.4
20260503201539 30 213 17.7 32.2 0.00 0.00 0.00 21 1008.5
20260503201024 29 244 17.7 40.2 0.00 0.00 0.00 20 1008.5
20260503200521 30 188 24.1 40.2 0.00 0.00 0.00 20 1008.6
20260503200038 30 228 14.5 40.2 0.00 0.00 0.00 20 1008.6
20260503195521 30 241 19.3 40.2 0.00 0.00 0.00 20 1008.7
20260503195021 30 258 16.1 32.2 0.00 0.00 0.00 20 1008.7
20260503194539 30 231 17.7 32.2 0.00 0.00 0.00 20 1008.9
20260503194023 29 198 16.1 40.2 0.00 0.00 0.00 20 1009.0
20260503193522 29 188 22.5 40.2 0.00 0.00 0.00 19 1008.9
20260503193039 30 225 17.7 38.6 0.00 0.00 0.00 21 1009.0
20260503192522 29 288 12.9 41.8 0.00 0.00 0.00 23 1009.1
20260503192021 29 234 24.1 41.8 0.00 0.00 0.00 20 1009.2
20260503191538 29 225 20.9 41.8 0.00 0.00 0.00 21 1009.2
20260503191022 29 250 20.9 37.0 0.00 0.00 0.00 21 1009.3
20260503190523 29 310 17.7 40.2 0.00 0.00 0.00 24 1009.4
20260503190046 28 206 20.9 43.5 0.00 0.00 0.00 22 1009.5
20260503185521 28 204 22.5 43.5 0.00 0.00 0.00 22 1009.6
20260503185021 28 238 16.1 37.0 0.00 0.00 0.00 23 1009.7
20260503184539 28 268 19.3 40.2 0.00 0.00 0.00 24 1009.6
20260503184023 28 269 20.9 40.2 0.00 0.00 0.00 26 1009.7
20260503183521 28 289 19.3 37.0 0.00 0.00 0.00 26 1009.9
20260503183054 28 270 19.3 37.0 0.00 0.00 0.00 27 1009.9
20260503182521 28 269 20.9 37.0 0.00 0.00 0.00 27 1010.0
20260503182022 28 227 17.7 35.4 0.00 0.00 0.00 32 1010.1
20260503181539 27 266 17.7 35.4 0.00 0.00 0.00 30 1010.2
20260503181022 27 242 17.7 35.4 0.00 0.00 0.00 30 1010.4
20260503180522 27 243 17.7 32.2 0.00 0.00 0.00 30 1010.6
20260503180049 27 214 14.5 29.0 0.00 0.00 0.00 33 1010.7
20260503175521 27 229 12.9 30.6 0.00 0.00 0.00 34 1010.8
20260503175022 26 259 16.1 32.2 0.00 0.00 0.00 32 1010.9
20260503174538 26 238 17.7 35.4 0.00 0.00 0.00 35 1011.0
20260503174022 26 250 19.3 35.4 0.00 0.00 0.00 33 1011.1
20260503173522 26 227 16.1 27.4 0.00 0.00 0.00 35 1011.2
20260503173051 26 244 12.9 24.1 0.00 0.00 0.00 35 1011.2
20260503172521 26 327 12.9 25.7 0.00 0.00 0.00 34 1011.3
20260503172020 26 220 12.9 25.7 0.00 0.00 0.00 40 1011.3
20260503171543 25 241 14.5 32.2 0.00 0.00 0.00 36 1011.3
20260503171022 25 256 12.9 32.2 0.00 0.00 0.00 36 1011.4
20260503170521 25 229 16.1 27.4 0.00 0.00 0.00 36 1011.4
20260503150522 20 242 11.3 27.4 0.00 0.00 0.00 54 1012.7
20260503131023 10 197 9.7 17.7 0.00 0.00 0.00 82 1013.0
20260503130522 9 189 9.7 17.7 0.00 0.00 0.00 84 1013.0
20260503110523 6 186 6.4 9.7 0.00 0.00 0.00 81 1013.3
20260503081545 6 187 8.0 16.1 0.00 0.00 0.00 79 1014.5
20260503081022 6 161 9.7 16.1 0.00 0.00 0.00 79 1014.5
20260503080525 6 195 9.7 17.7 0.00 0.00 0.00 79 1014.7
20260503072523 6 194 6.4 9.7 0.00 0.00 0.00 76 1015.0
20260503072024 6 176 4.8 9.7 0.00 0.00 0.00 75 1014.9
20260503071546 6 180 4.8 8.0 0.00 0.00 0.00 75 1015.0
20260503071022 6 186 4.8 8.0 0.00 0.00 0.00 74 1015.0
20260503070522 6 164 4.8 8.0 0.00 0.00 0.00 74 1015.1
20260503055022 8 165 6.4 8.0 0.00 0.05 0.00 69 1015.6
20260503054541 8 156 3.2 6.4 0.00 0.05 0.00 69 1015.6
20260503054022 8 140 4.8 6.4 0.00 0.05 0.00 68 1015.7
20260503053523 8 140 3.2 4.8 0.00 0.05 0.00 67 1015.8
20260503053037 8 140 3.2 4.8 0.00 0.05 0.00 66 1015.8
20260503052524 8 140 3.2 4.8 0.00 0.05 0.00 67 1015.8
20260503052022 8 140 3.2 6.4 0.00 0.05 0.00 67 1015.8
20260503051550 8 136 1.6 6.4 0.00 0.05 0.00 67 1015.8
20260503051025 8 134 4.8 6.4 0.00 0.05 0.00 67 1015.8
20260503050526 8 128 4.8 8.0 0.00 0.05 0.00 67 1015.8
20260503050041 8 144 3.2 8.0 0.00 0.05 0.00 67 1015.9
20260503045527 8 150 3.2 8.0 0.00 0.10 0.05 67 1015.9
20260503045025 8 147 3.2 6.4 0.00 0.10 0.05 66 1015.9
20260503044538 8 159 3.2 6.4 0.00 0.10 0.05 65 1015.8
20260503044024 8 154 3.2 4.8 0.00 0.10 0.05 65 1015.9
20260503043524 8 148 3.2 6.4 0.00 0.10 0.05 65 1015.9
20260503043037 8 147 3.2 8.0 0.00 0.10 0.05 64 1015.9
20260503042525 9 163 4.8 8.0 0.00 0.10 0.05 64 1015.8
20260503042027 9 157 3.2 8.0 0.00 0.10 0.05 63 1015.8
20260503041537 9 146 4.8 8.0 0.00 0.10 0.05 63 1015.8
20260503041024 9 167 6.4 8.0 0.00 0.10 0.05 61 1015.8
20260503040529 10 165 3.2 8.0 0.00 0.10 0.05 60 1015.8
20260503040037 10 147 3.2 8.0 0.00 0.10 0.05 60 1015.7
20260503035524 10 159 3.2 8.0 0.00 0.10 0.05 60 1015.8
20260503035025 10 151 3.2 8.0 0.00 0.10 0.05 59 1015.8